{"data":{"norad_id":59705,"intl_designator":"2024-087A","name":"ZHIHUI TIANWANG-1 01A","alt_names":[],"object_type":"PAYLOAD","status":"ACTIVE","operator":null,"country":"PRC","launch_date":"2024-05-09","launch_site_code":"XICLF","launch_vehicle":null,"mission":null,"orbit_class":"UNKNOWN","rcs_meters":null,"size_class":null,"mass_kg":null,"dimensions":null,"purposes":[],"wikipedia_slug":null,"has_3d_model":false,"image_url":null,"decayed_at":null,"tle_current":{"epoch":"2026-05-24T04:44:21.787296Z","epoch_age_seconds":158522,"freshness":"FRESH","line1":"1 59705U 24087A   26144.19747439  .00000063  00000+0  00000+0 0  9995","line2":"2 59705  53.1260 171.5702 0026890 205.5771 154.3434  2.00564254 14827","mean_motion":2.00564254,"eccentricity":0.002689,"inclination_deg":53.126,"raan_deg":171.5702,"arg_perigee_deg":205.5771,"mean_anomaly_deg":154.3434,"bstar":0,"rev_number":1482,"period_min":717.97440036349,"perigee_km":20110.732811024,"apogee_km":20253.574052967,"semimajor_km":26560.290431996,"source":"CELESTRAK","updated_at":"2026-05-25T13:38:01.590936Z"}}}